| time (UTC) | temp F | wind direction | speed MPH | gust MPH | rain 1hr in | rain 24hr in | rain mn in | humidity % | barometer mb |
| 20260504034307 | 46 | 179 | 0.0 | 0.0 | 0.00 | 0.00 | 0.00 | 46 | 1019.5 |
| 20260504033807 | 46 | 179 | 0.0 | 2.0 | 0.00 | 0.00 | 0.00 | 46 | 1019.6 |
| 20260504033307 | 45 | 213 | 2.0 | 2.0 | 0.00 | 0.00 | 0.00 | 49 | 1020.0 |
| 20260504032806 | 44 | 216 | 1.0 | 3.0 | 0.00 | 0.00 | 0.00 | 50 | 1020.4 |
| 20260504032306 | 43 | 213 | 2.0 | 3.0 | 0.00 | 0.00 | 0.00 | 55 | 1020.7 |
| 20260504030807 | 46 | 139 | 0.0 | 1.0 | 0.00 | 0.00 | 0.00 | 48 | 1019.9 |
| 20260504030306 | 45 | 139 | 1.0 | 1.0 | 0.00 | 0.00 | 0.00 | 47 | 1020.0 |
| 20260504025806 | 45 | 139 | 0.0 | 0.0 | 0.00 | 0.00 | 0.00 | 49 | 1019.8 |
| 20260504025306 | 45 | 139 | 0.0 | 0.0 | 0.00 | 0.00 | 0.00 | 48 | 1019.7 |
| 20260504024806 | 45 | 139 | 0.0 | 0.0 | 0.00 | 0.00 | 0.00 | 49 | 1020.0 |
| 20260504024306 | 46 | 139 | 0.0 | 1.0 | 0.00 | 0.00 | 0.00 | 49 | 1019.8 |
| 20260504023807 | 45 | 139 | 1.0 | 1.0 | 0.00 | 0.00 | 0.00 | 48 | 1019.8 |
| 20260504022807 | 45 | 139 | 1.0 | 1.0 | 0.00 | 0.00 | 0.00 | 49 | 1020.1 |
| 20260504022306 | 46 | 244 | 0.0 | 1.0 | 0.00 | 0.00 | 0.00 | 47 | 1019.6 |
| 20260504020806 | 46 | 241 | 2.0 | 3.0 | 0.00 | 0.00 | 0.00 | 46 | 1019.7 |
| 20260504020306 | 47 | 264 | 2.0 | 5.0 | 0.00 | 0.00 | 0.00 | 47 | 1019.5 |
| 20260504015806 | 47 | 262 | 3.0 | 5.0 | 0.00 | 0.00 | 0.00 | 45 | 1019.1 |
| 20260504015307 | 48 | 259 | 2.0 | 3.0 | 0.00 | 0.00 | 0.00 | 44 | 1018.9 |
| 20260504014807 | 48 | 251 | 2.0 | 3.0 | 0.00 | 0.00 | 0.00 | 43 | 1018.8 |
| 20260504014307 | 47 | 242 | 3.0 | 6.0 | 0.00 | 0.00 | 0.00 | 44 | 1019.0 |
| 20260504013807 | 47 | 254 | 4.0 | 6.0 | 0.00 | 0.00 | 0.00 | 45 | 1019.2 |
| 20260504013306 | 48 | 271 | 5.0 | 6.0 | 0.00 | 0.00 | 0.00 | 43 | 1018.9 |
| 20260504012806 | 49 | 253 | 1.0 | 3.0 | 0.00 | 0.00 | 0.00 | 43 | 1018.8 |
| 20260504012306 | 49 | 252 | 2.0 | 3.0 | 0.00 | 0.00 | 0.00 | 41 | 1018.6 |
| 20260504011806 | 49 | 245 | 2.0 | 5.0 | 0.00 | 0.00 | 0.00 | 40 | 1018.6 |
| 20260504011307 | 49 | 242 | 2.0 | 3.0 | 0.00 | 0.00 | 0.00 | 41 | 1018.4 |
| 20260504010306 | 49 | 244 | 2.0 | 5.0 | 0.00 | 0.00 | 0.00 | 41 | 1018.3 |
| 20260504005307 | 50 | 260 | 3.0 | 5.0 | 0.00 | 0.00 | 0.00 | 39 | 1018.0 |
| 20260504004807 | 50 | 236 | 3.0 | 8.0 | 0.00 | 0.00 | 0.00 | 40 | 1018.1 |
| 20260504004306 | 49 | 248 | 5.0 | 7.0 | 0.00 | 0.00 | 0.00 | 40 | 1017.9 |
| 20260504003806 | 49 | 275 | 6.0 | 7.0 | 0.00 | 0.00 | 0.00 | 40 | 1018.1 |
| 20260504003307 | 50 | 261 | 3.0 | 5.0 | 0.00 | 0.00 | 0.00 | 40 | 1017.9 |
| 20260504002806 | 51 | 264 | 3.0 | 5.0 | 0.00 | 0.00 | 0.00 | 39 | 1017.4 |
| 20260504002306 | 51 | 252 | 3.0 | 5.0 | 0.00 | 0.00 | 0.00 | 38 | 1017.4 |
| 20260504001806 | 51 | 269 | 3.0 | 5.0 | 0.00 | 0.00 | 0.00 | 37 | 1017.6 |
| 20260504001306 | 51 | 267 | 5.0 | 5.0 | 0.00 | 0.00 | 0.00 | 38 | 1017.5 |
| 20260504000806 | 52 | 269 | 5.0 | 5.0 | 0.00 | 0.00 | 0.00 | 38 | 1017.4 |
| 20260504000306 | 52 | 264 | 3.0 | 6.0 | 0.00 | 0.00 | 0.00 | 38 | 1017.2 |
| 20260503235806 | 53 | 260 | 3.0 | 7.0 | 0.00 | 0.00 | 0.00 | 38 | 1017.3 |
| 20260503235306 | 53 | 285 | 4.0 | 7.0 | 0.00 | 0.00 | 0.00 | 36 | 1017.0 |
| 20260503234806 | 54 | 284 | 5.0 | 7.0 | 0.00 | 0.00 | 0.00 | 34 | 1017.1 |
| 20260503234306 | 55 | 282 | 5.0 | 7.0 | 0.00 | 0.00 | 0.00 | 36 | 1016.9 |
| 20260503233806 | 55 | 298 | 6.0 | 9.0 | 0.00 | 0.00 | 0.00 | 33 | 1016.5 |
| 20260503233306 | 55 | 267 | 8.0 | 9.0 | 0.00 | 0.00 | 0.00 | 33 | 1016.7 |
| 20260503232806 | 56 | 297 | 6.0 | 7.0 | 0.00 | 0.00 | 0.00 | 32 | 1016.4 |
| 20260503231806 | 56 | 272 | 7.0 | 12.0 | 0.00 | 0.00 | 0.00 | 32 | 1016.0 |
| 20260503231306 | 57 | 269 | 6.0 | 10.0 | 0.00 | 0.00 | 0.00 | 33 | 1016.1 |
| 20260503230805 | 57 | 304 | 6.0 | 15.0 | 0.00 | 0.00 | 0.00 | 31 | 1016.1 |
| 20260503230306 | 57 | 280 | 10.0 | 15.0 | 0.00 | 0.00 | 0.00 | 29 | 1015.9 |
| 20260503225806 | 58 | 273 | 11.0 | 15.0 | 0.00 | 0.00 | 0.00 | 28 | 1015.6 |
| 20260503225306 | 57 | 271 | 7.0 | 8.0 | 0.00 | 0.00 | 0.00 | 31 | 1015.9 |
| 20260503224806 | 58 | 300 | 5.0 | 8.0 | 0.00 | 0.00 | 0.00 | 31 | 1015.9 |
| 20260503224306 | 58 | 278 | 5.0 | 9.0 | 0.00 | 0.00 | 0.00 | 32 | 1015.7 |
| 20260503223306 | 57 | 309 | 5.0 | 10.0 | 0.00 | 0.00 | 0.00 | 30 | 1015.8 |
| 20260503222806 | 58 | 298 | 6.0 | 10.0 | 0.00 | 0.00 | 0.00 | 31 | 1015.8 |
| 20260503222306 | 59 | 295 | 6.0 | 8.0 | 0.00 | 0.00 | 0.00 | 29 | 1015.6 |
| 20260503221805 | 59 | 278 | 6.0 | 13.0 | 0.00 | 0.00 | 0.00 | 30 | 1015.6 |
| 20260503221305 | 58 | 292 | 3.0 | 12.0 | 0.00 | 0.00 | 0.00 | 30 | 1016.0 |
| 20260503220305 | 59 | 305 | 6.0 | 13.0 | 0.00 | 0.00 | 0.00 | 28 | 1015.8 |
| 20260503215806 | 58 | 273 | 8.0 | 17.0 | 0.00 | 0.00 | 0.00 | 28 | 1015.9 |
| 20260503215305 | 59 | 272 | 10.0 | 17.0 | 0.00 | 0.00 | 0.00 | 27 | 1015.7 |
| 20260503214805 | 58 | 246 | 6.0 | 13.0 | 0.00 | 0.00 | 0.00 | 26 | 1015.9 |
| 20260503214306 | 59 | 290 | 6.0 | 9.0 | 0.00 | 0.00 | 0.00 | 27 | 1015.9 |
| 20260503213806 | 58 | 310 | 5.0 | 12.0 | 0.00 | 0.00 | 0.00 | 28 | 1016.1 |
| 20260503213305 | 59 | 298 | 5.0 | 12.0 | 0.00 | 0.00 | 0.00 | 29 | 1015.8 |
| 20260503212805 | 59 | 289 | 7.0 | 10.0 | 0.00 | 0.00 | 0.00 | 28 | 1015.7 |
| 20260503212306 | 59 | 263 | 7.0 | 10.0 | 0.00 | 0.00 | 0.00 | 27 | 1016.0 |
| 20260503211806 | 59 | 288 | 7.0 | 12.0 | 0.00 | 0.00 | 0.00 | 28 | 1015.8 |
| 20260503211306 | 58 | 305 | 7.0 | 12.0 | 0.00 | 0.00 | 0.00 | 28 | 1016.1 |
| 20260503210806 | 59 | 298 | 7.0 | 12.0 | 0.00 | 0.00 | 0.00 | 26 | 1016.2 |
| 20260503210306 | 59 | 324 | 3.0 | 5.0 | 0.00 | 0.00 | 0.00 | 28 | 1019.0 |
| 20260503205305 | 59 | 324 | 3.0 | 17.0 | 0.00 | 0.00 | 0.00 | 28 | 1016.0 |
| 20260503204305 | 56 | 21 | 5.0 | 17.0 | 0.00 | 0.00 | 0.00 | 31 | 1016.6 |
| 20260503203805 | 58 | 332 | 3.0 | 6.0 | 0.00 | 0.00 | 0.00 | 31 | 1018.8 |
| 20260503202806 | 58 | 320 | 3.0 | 6.0 | 0.00 | 0.00 | 0.00 | 31 | 1019.3 |
| 20260503201805 | 58 | 320 | 3.0 | 6.0 | 0.00 | 0.00 | 0.00 | 31 | 1019.2 |
| 20260503200306 | 58 | 320 | 3.0 | 6.0 | 0.00 | 0.00 | 0.00 | 31 | 1019.7 |
| 20260503195805 | 58 | 320 | 3.0 | 6.0 | 0.00 | 0.00 | 0.00 | 31 | 1019.7 |
| 20260503194806 | 58 | 320 | 3.0 | 6.0 | 0.00 | 0.00 | 0.00 | 31 | 1019.5 |
| 20260503194305 | 58 | 320 | 3.0 | 6.0 | 0.00 | 0.00 | 0.00 | 31 | 1017.0 |
| 20260503193805 | 58 | 320 | 3.0 | 9.0 | 0.00 | 0.00 | 0.00 | 31 | 1017.0 |
| 20260503192806 | 55 | 250 | 8.0 | 9.0 | 0.00 | 0.00 | 0.00 | 28 | 1020.0 |
| 20260503192305 | 55 | 250 | 8.0 | 9.0 | 0.00 | 0.00 | 0.00 | 28 | 1020.0 |
| 20260503191806 | 55 | 250 | 8.0 | 9.0 | 0.00 | 0.00 | 0.00 | 28 | 1019.9 |
| 20260503191305 | 55 | 250 | 8.0 | 9.0 | 0.00 | 0.00 | 0.00 | 28 | 1019.9 |
| 20260503190805 | 55 | 250 | 8.0 | 9.0 | 0.00 | 0.00 | 0.00 | 28 | 1019.9 |
| 20260503190306 | 55 | 250 | 8.0 | 9.0 | 0.00 | 0.00 | 0.00 | 28 | 1020.2 |
| 20260503185805 | 55 | 250 | 8.0 | 9.0 | 0.00 | 0.00 | 0.00 | 28 | 1020.2 |
| 20260503185305 | 55 | 250 | 8.0 | 9.0 | 0.00 | 0.00 | 0.00 | 28 | 1020.0 |
| 20260503184805 | 55 | 250 | 8.0 | 9.0 | 0.00 | 0.00 | 0.00 | 28 | 1020.2 |
| 20260503183805 | 55 | 250 | 8.0 | 9.0 | 0.00 | 0.00 | 0.00 | 28 | 1018.2 |
| 20260503183304 | 56 | 257 | 6.0 | 9.0 | 0.00 | 0.00 | 0.00 | 31 | 1018.1 |
| 20260503182806 | 56 | 259 | 5.0 | 7.0 | 0.00 | 0.00 | 0.00 | 32 | 1018.6 |
| 20260503182306 | 54 | 347 | 5.0 | 6.0 | 0.00 | 0.00 | 0.00 | 31 | 1018.4 |
| 20260503181805 | 54 | 77 | 1.0 | 2.0 | 0.00 | 0.00 | 0.00 | 32 | 1020.4 |
| 20260503181305 | 55 | 88 | 1.0 | 1.0 | 0.00 | 0.00 | 0.00 | 32 | 1020.7 |
| 20260503180805 | 55 | 88 | 1.0 | 1.0 | 0.00 | 0.00 | 0.00 | 32 | 1018.8 |
| 20260503175805 | 53 | 333 | 5.0 | 7.0 | 0.00 | 0.00 | 0.00 | 34 | 1019.1 |
| 20260503175305 | 53 | 333 | 5.0 | 7.0 | 0.00 | 0.00 | 0.00 | 34 | 1019.3 |
| 20260503174805 | 54 | 273 | 6.0 | 7.0 | 0.00 | 0.00 | 0.00 | 31 | 1019.3 |
| 20260503174305 | 53 | 302 | 4.0 | 7.0 | 0.00 | 0.00 | 0.00 | 34 | 1019.1 |
| 20260503173805 | 53 | 283 | 5.0 | 14.0 | 0.00 | 0.00 | 0.00 | 33 | 1019.4 |
| 20260503173305 | 54 | 303 | 3.0 | 10.0 | 0.00 | 0.00 | 0.00 | 34 | 1019.1 |
| 20260503171805 | 54 | 9 | 2.0 | 7.0 | 0.00 | 0.00 | 0.00 | 31 | 1019.4 |
| 20260503171305 | 53 | 1 | 4.0 | 12.0 | 0.00 | 0.00 | 0.00 | 33 | 1019.7 |
| 20260503170805 | 53 | 306 | 6.0 | 9.0 | 0.00 | 0.00 | 0.00 | 33 | 1019.8 |
| 20260503170305 | 52 | 339 | 1.0 | 7.0 | 0.00 | 0.00 | 0.00 | 34 | 1020.0 |
| 20260503150804 | 46 | 280 | 6.0 | 12.0 | 0.00 | 0.00 | 0.00 | 42 | 1021.8 |
| 20260503150304 | 46 | 283 | 7.0 | 9.0 | 0.00 | 0.00 | 0.00 | 44 | 1022.0 |
| 20260503140304 | 43 | 336 | 2.0 | 9.0 | 0.00 | 0.00 | 0.00 | 46 | 1022.4 |
| 20260503131304 | 40 | 325 | 5.0 | 15.0 | 0.00 | 0.00 | 0.00 | 49 | 1023.0 |
| 20260503130804 | 40 | 288 | 6.0 | 15.0 | 0.00 | 0.00 | 0.00 | 51 | 1023.0 |
| 20260503130305 | 40 | 252 | 9.0 | 15.0 | 0.00 | 0.00 | 0.00 | 52 | 1023.2 |
| 20260503110804 | 35 | 291 | 5.0 | 10.0 | 0.00 | 0.00 | 0.00 | 69 | 1022.8 |
| 20260503081308 | 37 | 271 | 8.0 | 12.0 | 0.00 | 0.00 | 0.00 | 70 | 1020.9 |
| 20260503080807 | 37 | 284 | 8.0 | 13.0 | 0.00 | 0.00 | 0.00 | 70 | 1021.0 |
| 20260503080307 | 37 | 265 | 9.0 | 13.0 | 0.00 | 0.00 | 0.00 | 70 | 1020.8 |
| 20260503072807 | 37 | 273 | 7.0 | 10.0 | 0.00 | 0.00 | 0.00 | 69 | 1020.7 |
| 20260503072308 | 37 | 279 | 7.0 | 13.0 | 0.00 | 0.00 | 0.00 | 68 | 1020.5 |
| 20260503071807 | 37 | 278 | 8.0 | 13.0 | 0.00 | 0.00 | 0.00 | 69 | 1020.6 |
| 20260503071307 | 38 | 285 | 7.0 | 10.0 | 0.00 | 0.00 | 0.00 | 67 | 1020.2 |
| 20260503070807 | 37 | 259 | 7.0 | 10.0 | 0.00 | 0.00 | 0.00 | 68 | 1020.2 |
| 20260503070307 | 37 | 277 | 7.0 | 8.0 | 0.00 | 0.00 | 0.00 | 68 | 1020.1 |
| 20260503060307 | 38 | 275 | 6.0 | 8.0 | 0.00 | 0.00 | 0.00 | 68 | 1020.1 |
| 20260503054807 | 38 | 282 | 6.0 | 12.0 | 0.00 | 0.00 | 0.00 | 66 | 1020.1 |
| 20260503054307 | 38 | 270 | 8.0 | 9.0 | 0.00 | 0.00 | 0.00 | 67 | 1019.9 |
| 20260503053807 | 38 | 276 | 7.0 | 9.0 | 0.00 | 0.00 | 0.00 | 66 | 1020.0 |
| 20260503053306 | 39 | 269 | 6.0 | 9.0 | 0.00 | 0.00 | 0.00 | 66 | 1020.1 |
| 20260503052807 | 38 | 255 | 6.0 | 9.0 | 0.00 | 0.00 | 0.00 | 67 | 1019.8 |
| 20260503052307 | 38 | 273 | 7.0 | 9.0 | 0.00 | 0.00 | 0.00 | 67 | 1020.0 |
| 20260503051807 | 39 | 274 | 7.0 | 9.0 | 0.00 | 0.00 | 0.00 | 66 | 1019.7 |
| 20260503051307 | 39 | 256 | 5.0 | 7.0 | 0.00 | 0.00 | 0.00 | 66 | 1019.7 |
| 20260503050807 | 39 | 263 | 3.0 | 6.0 | 0.00 | 0.00 | 0.00 | 66 | 1019.8 |
| 20260503050307 | 39 | 265 | 5.0 | 8.0 | 0.00 | 0.00 | 0.00 | 66 | 1019.7 |
| 20260503045807 | 39 | 266 | 5.0 | 8.0 | 0.00 | 0.00 | 0.00 | 65 | 1019.5 |
| 20260503045306 | 39 | 281 | 5.0 | 8.0 | 0.00 | 0.00 | 0.00 | 65 | 1019.6 |
| 20260503044307 | 39 | 272 | 6.0 | 10.0 | 0.00 | 0.00 | 0.00 | 65 | 1019.6 |
| 20260503043807 | 39 | 268 | 7.0 | 10.0 | 0.00 | 0.00 | 0.00 | 65 | 1019.8 |
| 20260503042807 | 38 | 262 | 6.0 | 9.0 | 0.00 | 0.00 | 0.00 | 66 | 1019.8 |
| 20260503041806 | 39 | 271 | 6.0 | 9.0 | 0.00 | 0.00 | 0.00 | 66 | 1019.5 |
| 20260503041307 | 39 | 278 | 5.0 | 8.0 | 0.00 | 0.00 | 0.00 | 66 | 1019.7 |
| 20260503040807 | 39 | 267 | 6.0 | 8.0 | 0.00 | 0.00 | 0.00 | 65 | 1019.7 |
| 20260503040306 | 39 | 271 | 5.0 | 7.0 | 0.00 | 0.00 | 0.00 | 65 | 1019.5 |
| 20260503035806 | 39 | 267 | 4.0 | 8.0 | 0.00 | 0.00 | 0.00 | 65 | 1019.4 |
| 20260503035307 | 40 | 247 | 3.0 | 8.0 | 0.00 | 0.00 | 0.00 | 64 | 1019.5 |